Regional Weather Roundup
Issued by NWS Grand Forks, ND

Home | Current Version | Previous Version | Text Only | Print | Product List | Glossary On
Versions: 1 2 3 4 5 6 7 8 9 10 11 12 13 14 15 16 17 18 19 20 21 22 23 24 25 26 27 28 29 30 31 32 33 34 35 36 37 38 39 40 41 42 43 44 45 46 47 48 49 50
000
ASUS43 KFGF 292231
RWRFGF
PRAIRIE TO PINES  WEATHER ROUNDUP
NATIONAL WEATHER SERVICE EASTERN NORTH DAKOTA/GRAND FORKS ND
500 PM CDT FRI MAY 29 2015

 **SATELLITE DATA USED TO AUGMENT SKY COVER AT AUTOMATED STATIONS**
 *****  WEATHER ACROSS EASTERN NORTH DAKOTA  *****

CITY           SKY/WX    TMP DP  RH WIND       PRES   REMARKS
GRAND FORKS    MOSUNNY   56  38  50 N20G32    30.18S
GRAND FRKS AFB MOSUNNY   55  35  46 N22G30    30.19S
GRAND FRKS NWS   N/A     55 N/A N/A N9          N/A
DEVILS LAKE    SUNNY     55  30  38 N17G25    30.22S
FARGO          PTSUNNY   56  42  59 N24G30    30.14S
WAHPETON ARPT  MOCLDY    50  41  71 N22G28    30.12F
$$

 ***** WEATHER ACROSS CENTRAL AND WESTERN NORTH DAKOTA  *****

CITY           SKY/WX    TMP DP  RH WIND       PRES   REMARKS
BISMARCK       MOSUNNY   58  36  43 N13       30.25F
MINOT          MOSUNNY   56  33  42 N8        30.26F
JAMESTOWN      MOSUNNY   57  37  47 N25       30.18S
MINOT AFB      SUNNY     57  36  44 N15       30.26S
GARRISON         N/A     55  34  45 NE7       30.27S
WILLISTON      SUNNY     59  31  34 VRB5      30.29S
DICKINSON        N/A    N/A N/A N/A MISG      30.26S
HETTINGER      MOSUNNY   53  36  52 NW12      30.28S
$$

 *****  OTHER AIRPORT OBSERVATIONS IN OUR AREA  *****

CITY           SKY/WX    TMP DP  RH WIND       PRES   REMARKS
WALHALLA         N/A     52  32  46 MISG      30.26R
GRAFTON AIRPOR FAIR      54  37  54 N20G29    30.21S
VALLEY CITY AR FAIR      54  37  54 N20G28    30.18S
CANDO          FAIR      55  30  38 N21G28    30.25S
CAVALIER APRT  MOCLDY    52  36  54 N16G25    30.24R
GWINNER        NOT AVBL
SHEYENNE NWR     N/A     55  40  58 N14       29.95S
ROLLA          FAIR      50  32  50 NE15G23   30.26R
 ***** THE ABOVE OBSERVATIONS ARE NON NWS ARE NOT QUALITY
       CONTROLLED AND MAY MIS-REPORT RAIN FOR SNOW...
$$

  *****  WEATHER ACROSS NORTHERN MINNESOTA  *****

CITY           SKY/WX    TMP DP  RH WIND       PRES   REMARKS
FLAG ISLAND    PTSUNNY   52  36  54 N21G26    30.13S
WARROAD        SUNNY     54  37  54 NW16G22   30.15R
ROSEAU         SUNNY     54  37  54 N18       30.16R
HALLOCK        SUNNY     54  34  47 N25       30.20R
THF RVR FALLS  SUNNY     54  37  54 N20       30.16R
BAUDETTE       MOSUNNY   53  40  61 N18       30.10F
WASKISH        MOSUNNY   54  43  66 N10G18    30.11R
CROOKSTON      MOSUNNY   55  37  50 N22G29    30.17R
STEPHEN NDAWN    N/A     54  37  54 N20         N/A
GREENBUSH NDAW   N/A     52  37  58 N18         N/A
$$
  *****  WEATHER ACROSS CENTRAL AND WEST MINNESOTA  *****

CITY           SKY/WX    TMP DP  RH WIND       PRES   REMARKS
FOSSTON        PTSUNNY   55  45  67 N21       30.13S
BEMIDJI        MOSUNNY   55  40  57 N15       30.09S
PARK RAPIDS    PTSUNNY   55  40  56 N16       30.07R
ELBOW LAKE     MOCLDY    52  45  77 N18G24    30.07S
WADENA         CLOUDY    54  45  71 N15       30.06R
DETROIT LAKES  PTSUNNY   52  41  66 N12G25    30.12R
MOORHEAD       MOSUNNY   54  43  66 N22G28    30.14S
FERGUS FALLS   PTSUNNY   52  43  71 N13G22    30.10S
MORRIS MN      CLOUDY    54  46  76 N24G31    30.05S
STAPLES        CLOUDY    52  45  76 N14G21    30.06R
$$
  *****  WEATHER ELSEWHERE ACROSS MINNESOTA  *****

CITY           SKY/WX    TMP DP  RH WIND       PRES   REMARKS
DULUTH         CLOUDY    55  50  83 NW18G25   29.97R
INTRNTL FALLS  CLOUDY    51  41  68 N12       30.07R
ELY            NOT AVBL
CLOQUET        CLOUDY    54  48  82 NW14G23   29.99R
WHEATON        CLOUDY    46  41  81 N22G32    30.13S
BRAINERD       CLOUDY    52  46  80 N14       30.04R
HIBBING        CLOUDY    54  46  74 N16G24    30.02R
ALEXANDRIA     CLOUDY    53  46  77 N15G22    30.05S
SAINT CLOUD    LGT RAIN  54  52  93 N17       29.98R
MINNEAPOLIS    LGT RAIN  65  62  90 N13       29.90F
$$

  *****  WEATHER ACROSS SOUTH DAKOTA  *****

CITY           SKY/WX    TMP DP  RH WIND       PRES   REMARKS
SIOUX FALLS    CLOUDY    53  49  86 N18G29    30.01R
BROOKINGS      CLOUDY    50  46  87 N17G25    30.06F
WATERTOWN      CLOUDY    49  43  80 N22G30    30.08R
HURON          CLOUDY    52  44  74 N22G33    30.13R
SISSETON         N/A     49  43  80 N24G33    30.12S
ABERDEEN       CLOUDY    54  43  66 N18       30.16F
MITCHELL       LGT RAIN  53  48  83 N24G37    30.10R
PIERRE         CLOUDY    53  42  66 N22       30.20S
MOBRIDGE       CLOUDY    57  38  48 N16       30.21R
RAPID CITY     PTSUNNY   57  43  59 NE18G30   30.26S
$$

  *****  SOME WEATHER IN NEARBY STATES *****

CITY           SKY/WX    TMP DP  RH WIND       PRES   REMARKS
GLASGOW MT     SUNNY     59  31  34 CALM      30.27F
GREAT FALLS MT MOSUNNY   67  50  54 NE13      30.13F
CHEYENNE WY    PTSUNNY   54  42  64 N17G31    30.26R
SCOTTSBLUFF NE LGT RAIN  51  48  89 N17       30.26R
OMAHA NE       CLOUDY    78  60  53 S12       29.88F
DES MOINES IA  CLOUDY    74  64  71 SW14      29.89S
DAVENPORT IA   PTSUNNY   80  62  54 SW18      29.90F
CHICAGO IL     LGT RAIN  77  66  68 SW10      29.90F
EAU CLAIRE WI  RAIN      66  63  90 W8        29.89R
LA CROSSE WI   TSTM      70  63  78 S12G22    29.85S VSB 1/2
$$

  *****  SOME NATIONAL WEATHER *****

CITY           SKY/WX    TMP DP  RH WIND       PRES   REMARKS
LA GUARDIA NY  PTSUNNY   76  56  49 S10       30.22S
RALEIGH NC     MOSUNNY   85  58  39 SE9       30.17F
ATLANTA GA     MOSUNNY   83  62  49 E9        30.15F
NEW ORLEANS LA PTSUNNY   84  68  58 SE13      30.04S
OKLAHOMA CITY  CLOUDY    78  62  57 W3        29.93F
ALBUQUERQUE NM PTSUNNY   75  34  22 SW20      30.13F
SALT LAKE CITY MOSUNNY   75  38  26 N8        30.13F
LOS ANGELES CA MOSUNNY   66  57  72 W12       29.93F
BOISE ID       SUNNY     85  34  16 SE12G18   30.01F
SEATTLE WA     MOSUNNY   77  55  46 SW6       29.94F
$$

*** WEATHER ACROSS MANITOBA...SASKATCHEWAN AND ONTARIO ***
                ***ONTARIO***

CITY           SKY/WX    TMP DP  RH WIND       PRES   REMARKS
GERALDTON      CLOUDY    46  45  93 N12G18    29.91R
THUNDER BAY    LGT RAIN  63  55  77 NW10      29.90R
SIOUX LOOKOUT  LGT RAIN  52  43  71 NW14G22   30.04R
TORONTO        PTSUNNY   73  55  53 E9        30.09F
BIG TROUT LK   LGT RAIN  37  37 100 NE5       30.06
PICKLE LAKE    LGT RAIN  50  43  76 N9G20     29.99R
DRYDEN         CLOUDY    50  39  66 NW12G20   30.06R
KENORA         PTSUNNY   48  36  61 NW16G23   30.13S
$$
                *** MANITOBA***

CITY           SKY/WX    TMP DP  RH WIND       PRES   REMARKS
BRANDON        MOSUNNY   54  30  40 NE18G26   30.29R
DAUPHIN        CLOUDY    46  32  57 N17G24    30.36R
ISLAND LAKE    CLOUDY    34  27  75 N14G21    30.28R WCI  24
PILOT MOUND      N/A     50  34  53 N18G25      N/A
THE PAS        PTSUNNY   43  23  45 N12G18    30.41S
THOMPSON       FLURRIES  34  23  64 N13G18    30.40R WCI  25
WINNIPEG       MOSUNNY   50  30  46 N22G31    30.27R
LYNN LAKE      CLOUDY    37  23  56 NW7       30.41S
CHURCHILL      CLOUDY    28  21  74 N12       30.41S WCI  18
GILLAM         LGT SNOW  28  25  86 N18       30.35S VSB 1   WCI  16
$$
                ***SASKATCHEWAN***

CITY           SKY/WX    TMP DP  RH WIND       PRES   REMARKS
ESTEVAN        MOSUNNY   55  30  38 N7G21     30.29F
KINDERSLEY     PTSUNNY   59  27  29 E8G20     30.28
LLOYDMINSTER   PTSUNNY   57  23  26 E12       30.30F
PRINCE ALBERT  PTSUNNY   54  25  32 NE7       30.37F
REGINA         MOSUNNY   55  23  28 NE7G17    30.32F
YORKTON        SUNNY     52  23  32 N12G17    30.32F
N. BATTLEFORD  SUNNY     57  27  30 VRB8      30.34F
LA RONGE       MOSUNNY   46  21  36 SE13      30.41F
SASKATOON      PTSUNNY   55  21  26 SE12      30.36F
SWIFT CURRENT  MOSUNNY   57  27  30 E7        30.27F
$$
NOTE: THESE ARE AUTOMATED STATIONS WITH LIMITED QUALITY CONTROL
      "FAIR" INDICATES FEW OR NO CLOUDS BELOW 12,000 FEET WITH NO
      SIGNIFICANT WEATHER AND/OR OBSTRUCTIONS TO VISIBILITY.
      SKY/WX - SKY CONDITION AND SIGNIFICANT WEATHER.
      TMP - AIR TEMPERATURE.    DP   - DEWPOINT TEMPERATURE.
      RH  - RELATIVE HUMIDITY.  PRES - PRESSURE.
      HX  - HEAT INDEX.         WCI  - WIND CHILL INDEX.
$



USA.gov is the U.S. government's official web portal to all federal, state and local government web resources and services.